Location: Dalton Gardens
(47.7327°N, 116.7697°W)
Time: 02:57:44
(UTC+00:00)

BlueWalker 3 - Pass Details

Date: 06 December 2022
Orbit: 499 x 517 km, 53.2° (Epoch: 26 January)

Event Time Altitude Azimuth Distance (km) Brightness Sun altitude
Rises 02:06:31 0° 296° (WNW) 2,632 6.4 -21.1°
Reaches altitude 10° 02:08:45 10° 300° (WNW) 1,739 5.3 -21.5°
Enters shadow 02:12:15 56° 351° (N) 613 2.2 -22.1°
